When you browse on this site, cookies collect data to enhance your experience and personalize the content and advertising you see.
Visit our Privacy Policy to learn more. By continuing to use the site, you agree to this use of cookies and data.
  • în România
  • Lista ţărilor
  • Pe 7 zile
  • Temperatura apei
  • Hartă satelitară
  • Meteo pe hartă
  • Widget-uri
  • user-avatar
    Intrare

    Meteo pe oră la Gori

    Astăzi, 20 Mai, Luni

    Timp Temperatura Precipitaţii Vânt Presiune Umiditate
    00:00 +16°C° 0.5 mm 2 m/s 698 mmHg 93%
    01:00 +16°C° 0.2 mm 2 m/s 698 mmHg 92%
    02:00 +16°C° 0.2 mm 2 m/s 698 mmHg 91%
    03:00 +16°C° 0.2 mm 2 m/s 698 mmHg 90%
    04:00 +16°C° 0.2 mm 2 m/s 698 mmHg 89%
    05:00 +16°C° 0.2 mm 2 m/s 698 mmHg 88%
    06:00 +16°C° 0.2 mm 2 m/s 698 mmHg 87%
    07:00 +18°C° 0 mm 2 m/s 698 mmHg 82%
    08:00 +19°C° 0 mm 2 m/s 698 mmHg 76%
    09:00 +20°C° 0 mm 3 m/s 698 mmHg 71%
    10:00 +21°C° 0.3 mm 3 m/s 698 mmHg 67%
    11:00 +22°C° 0.3 mm 3 m/s 699 mmHg 63%
    12:00 +24°C° 0.3 mm 3 m/s 699 mmHg 59%
    13:00 +24°C° 0.7 mm 3 m/s 699 mmHg 62%
    14:00 +22°C° 0.7 mm 4 m/s 699 mmHg 65%
    15:00 +22°C° 0.7 mm 4 m/s 699 mmHg 68%
    16:00 +21°C° 0.7 mm 3 m/s 699 mmHg 73%
    17:00 +20°C° 0.7 mm 3 m/s 699 mmHg 77%
    18:00 +19°C° 0.7 mm 3 m/s 699 mmHg 82%
    19:00 +18°C° 0.2 mm 2 m/s 699 mmHg 86%
    20:00 +16°C° 0.2 mm 2 m/s 699 mmHg 89%
    21:00 +15°C° 0.2 mm 2 m/s 700 mmHg 93%
    22:00 +15°C° 0.2 mm 2 m/s 700 mmHg 92%
    23:00 +15°C° 0.2 mm 1 m/s 700 mmHg 91%

    Mâine, 21 Mai, Marţi

    Timp Temperatura Precipitaţii Vânt Presiune Umiditate
    00:00 +14°C° 0.2 mm 1 m/s 700 mmHg 90%
    01:00 +14°C° 0.5 mm 1 m/s 700 mmHg 89%
    02:00 +13°C° 0.5 mm 0 m/s 700 mmHg 89%
    03:00 +13°C° 0.5 mm 0 m/s 700 mmHg 88%
    04:00 +14°C° 0.7 mm 0 m/s 700 mmHg 87%
    05:00 +14°C° 0.7 mm 0 m/s 701 mmHg 86%
    06:00 +15°C° 0.7 mm 0 m/s 701 mmHg 85%
    07:00 +18°C° 0.2 mm 1 m/s 701 mmHg 81%
    08:00 +18°C° 0.2 mm 2 m/s 701 mmHg 78%
    09:00 +19°C° 0.2 mm 3 m/s 702 mmHg 74%
    10:00 +20°C° 0 mm 3 m/s 702 mmHg 71%
    11:00 +21°C° 0 mm 3 m/s 702 mmHg 68%
    12:00 +21°C° 0 mm 4 m/s 702 mmHg 65%
    13:00 +22°C° 0 mm 4 m/s 702 mmHg 63%
    14:00 +22°C° 0 mm 4 m/s 702 mmHg 62%
    15:00 +22°C° 0 mm 4 m/s 701 mmHg 61%
    16:00 +22°C° 0 mm 4 m/s 701 mmHg 64%
    17:00 +21°C° 0 mm 4 m/s 701 mmHg 67%
    18:00 +20°C° 0 mm 3 m/s 701 mmHg 70%
    19:00 +19°C° 0 mm 3 m/s 702 mmHg 75%
    20:00 +17°C° 0 mm 3 m/s 702 mmHg 79%
    21:00 +15°C° 0 mm 2 m/s 702 mmHg 84%
    22:00 +15°C° 0 mm 2 m/s 702 mmHg 84%
    23:00 +14°C° 0 mm 2 m/s 702 mmHg 84%

    Poimâine, 22 Mai, Miercuri

    Timp Temperatura Precipitaţii Vânt Presiune Umiditate
    00:00 +13°C° 0 mm 3 m/s 702 mmHg 83%
    01:00 +13°C° 0 mm 3 m/s 702 mmHg 82%
    02:00 +13°C° 0 mm 3 m/s 702 mmHg 80%
    03:00 +14°C° 0 mm 3 m/s 701 mmHg 78%
    04:00 +14°C° 0 mm 3 m/s 701 mmHg 78%
    05:00 +13°C° 0 mm 3 m/s 701 mmHg 78%
    06:00 +13°C° 0 mm 3 m/s 701 mmHg 78%
    07:00 +14°C° 0 mm 3 m/s 701 mmHg 75%
    08:00 +16°C° 0 mm 3 m/s 701 mmHg 71%
    09:00 +17°C° 0 mm 4 m/s 700 mmHg 68%
    10:00 +18°C° 0.2 mm 3 m/s 700 mmHg 67%
    11:00 +18°C° 0.2 mm 3 m/s 700 mmHg 67%
    12:00 +19°C° 0.2 mm 3 m/s 700 mmHg 67%
    13:00 +18°C° 1.6 mm 2 m/s 699 mmHg 73%
    14:00 +18°C° 1.6 mm 1 m/s 699 mmHg 79%
    15:00 +16°C° 1.6 mm 0 m/s 699 mmHg 85%
    16:00 +18°C° 0.1 mm 1 m/s 699 mmHg 82%
    17:00 +19°C° 0.1 mm 1 m/s 700 mmHg 79%
    18:00 +19°C° 0.1 mm 1 m/s 700 mmHg 76%
    19:00 +18°C° 0.1 mm 1 m/s 700 mmHg 82%
    20:00 +15°C° 0.1 mm 2 m/s 700 mmHg 88%
    21:00 +14°C° 0.1 mm 2 m/s 701 mmHg 94%
    22:00 +13°C° 0 mm 2 m/s 700 mmHg 94%
    23:00 +13°C° 0 mm 2 m/s 700 mmHg 95%

    23 Mai, Joi

    Timp Temperatura Precipitaţii Vânt Presiune Umiditate
    00:00 +13°C° 0 mm 2 m/s 700 mmHg 95%
    01:00 +13°C° 0 mm 2 m/s 700 mmHg 95%
    02:00 +12°C° 0 mm 2 m/s 700 mmHg 95%
    03:00 +12°C° 0 mm 2 m/s 700 mmHg 95%
    04:00 +12°C° 0 mm 2 m/s 700 mmHg 93%
    05:00 +13°C° 0 mm 2 m/s 700 mmHg 91%
    06:00 +13°C° 0 mm 2 m/s 700 mmHg 89%
    07:00 +14°C° 0 mm 3 m/s 700 mmHg 80%
    08:00 +17°C° 0 mm 4 m/s 700 mmHg 70%
    09:00 +19°C° 0 mm 4 m/s 700 mmHg 60%
    10:00 +20°C° 0 mm 5 m/s 700 mmHg 56%
    11:00 +21°C° 0 mm 6 m/s 699 mmHg 52%
    12:00 +22°C° 0 mm 7 m/s 699 mmHg 48%
    13:00 +22°C° 0 mm 7 m/s 699 mmHg 48%
    14:00 +22°C° 0 mm 7 m/s 699 mmHg 48%
    15:00 +22°C° 0 mm 8 m/s 698 mmHg 48%
    16:00 +21°C° 0 mm 7 m/s 698 mmHg 53%
    17:00 +20°C° 0 mm 6 m/s 698 mmHg 58%
    18:00 +19°C° 0 mm 5 m/s 698 mmHg 62%
    19:00 +17°C° 0 mm 4 m/s 699 mmHg 71%
    20:00 +14°C° 0 mm 3 m/s 699 mmHg 79%
    21:00 +13°C° 0 mm 2 m/s 699 mmHg 88%
    22:00 +13°C° 0 mm 2 m/s 699 mmHg 88%
    23:00 +12°C° 0 mm 2 m/s 699 mmHg 87%

    24 Mai, Vineri

    Timp Temperatura Precipitaţii Vânt Presiune Umiditate
    00:00 +12°C° 0 mm 2 m/s 699 mmHg 87%
    01:00 +12°C° 0 mm 2 m/s 699 mmHg 85%
    02:00 +11°C° 0 mm 1 m/s 699 mmHg 83%
    03:00 +11°C° 0 mm 1 m/s 699 mmHg 82%
    04:00 +12°C° 0 mm 1 m/s 699 mmHg 78%
    05:00 +13°C° 0 mm 1 m/s 699 mmHg 75%
    06:00 +14°C° 0 mm 1 m/s 699 mmHg 72%
    07:00 +16°C° 0 mm 1 m/s 699 mmHg 65%
    08:00 +19°C° 0 mm 1 m/s 700 mmHg 58%
    09:00 +21°C° 0 mm 1 m/s 700 mmHg 51%
    10:00 +23°C° 0 mm 1 m/s 700 mmHg 47%
    11:00 +24°C° 0 mm 2 m/s 699 mmHg 42%
    12:00 +25°C° 0 mm 3 m/s 699 mmHg 38%
    13:00 +25°C° 0 mm 3 m/s 699 mmHg 38%
    14:00 +26°C° 0 mm 3 m/s 699 mmHg 37%
    15:00 +26°C° 0 mm 3 m/s 699 mmHg 36%
    16:00 +25°C° 0 mm 2 m/s 699 mmHg 43%
    17:00 +24°C° 0 mm 2 m/s 699 mmHg 50%
    18:00 +23°C° 0 mm 1 m/s 699 mmHg 56%
    19:00 +21°C° 0 mm 1 m/s 699 mmHg 59%
    20:00 +20°C° 0 mm 1 m/s 700 mmHg 61%
    21:00 +18°C° 0 mm 1 m/s 700 mmHg 64%
    22:00 +18°C° 0 mm 1 m/s 700 mmHg 63%
    23:00 +16°C° 0 mm 1 m/s 700 mmHg 63%

    25 Mai, Sâmbătă

    Timp Temperatura Precipitaţii Vânt Presiune Umiditate
    00:00 +16°C° 0 mm 1 m/s 700 mmHg 62%
    01:00 +16°C° 0 mm 2 m/s 699 mmHg 63%
    02:00 +15°C° 0 mm 2 m/s 699 mmHg 63%
    03:00 +15°C° 0 mm 2 m/s 699 mmHg 64%
    04:00 +15°C° 0 mm 2 m/s 699 mmHg 65%
    05:00 +16°C° 0 mm 2 m/s 699 mmHg 67%
    06:00 +16°C° 0 mm 2 m/s 699 mmHg 69%
    07:00 +18°C° 0 mm 2 m/s 699 mmHg 64%
    08:00 +21°C° 0 mm 3 m/s 699 mmHg 60%
    09:00 +24°C° 0 mm 3 m/s 699 mmHg 55%
    10:00 +25°C° 0.1 mm 3 m/s 698 mmHg 53%
    11:00 +27°C° 0.1 mm 3 m/s 698 mmHg 51%
    12:00 +28°C° 0.1 mm 4 m/s 698 mmHg 49%
    13:00 +29°C° 0.1 mm 4 m/s 698 mmHg 50%
    14:00 +29°C° 0.1 mm 4 m/s 697 mmHg 51%
    15:00 +29°C° 0.1 mm 3 m/s 697 mmHg 52%
    16:00 +27°C° 1.2 mm 3 m/s 697 mmHg 63%
    17:00 +25°C° 1.2 mm 3 m/s 697 mmHg 73%
    18:00 +23°C° 1.2 mm 2 m/s 697 mmHg 83%
    19:00 +21°C° 1.8 mm 2 m/s 698 mmHg 86%
    20:00 +20°C° 1.8 mm 2 m/s 698 mmHg 88%
    21:00 +19°C° 1.8 mm 2 m/s 699 mmHg 91%
    22:00 +19°C° 0.3 mm 1 m/s 699 mmHg 90%
    23:00 +19°C° 0.3 mm 1 m/s 699 mmHg 89%
    Arată mai mult